Location: McFarlands Corners
(41.4117°N, 81.3382°W)
Time: 11:48:43
(UTC+00:00)

Tiros 1 - Pass Details

Date: 21 February 2026
Orbit: 618 x 650 km, 48.4° (Epoch: 16 March)

Event Time Altitude Azimuth Distance (km) Brightness Sun altitude
Rises 19:22:05 0° 292° (WNW) 2,891 10.6 33.1°
Reaches altitude 10° 19:24:39 10° 280° (W) 1,979 10.0 32.8°
Maximum altitude 19:28:27 27° 223° (SW) 1,199 10.9 32.4°
Drops below altitude 10° 19:32:15 10° 166° (SSE) 1,969 10.3 32.1°
Sets 19:34:49 0° 154° (SSE) 2,873 10.8 31.8°
